Location: Newark
(5.8900°S, 42.6378°W)
Time: 12:58:57
(UTC+00:00)

Vanguard 1 Rocket - Pass Details

Date: 27 October 2019
Orbit: 651 x 4226 km, 34.3° (Epoch: 20 November)

Event Time Altitude Azimuth Distance (km) Brightness Sun altitude
Rises 06:57:36 0° 231° (SW) 3,002 - -22.1°
Reaches altitude 10° 06:59:51 10° 229° (SW) 2,047 - -21.5°
Exits shadow 07:01:49 27° 223° (SW) 1,259 7.9 -21.0°
Maximum altitude 07:04:12 72° 144° (SE) 732 7.0 -20.5°
Drops below altitude 10° 07:09:43 10° 59° (ENE) 2,580 10.3 -19.2°
Sets 07:12:52 0° 57° (ENE) 3,882 11.3 -18.4°
